Location: Praha
(50.0830°N, 14.4670°E)
Time: 11:55:34
(UTC+02:00)

ISS - Pass Details

Date: 16 May 2019
Orbit: 407 x 410 km, 51.6° (Epoch: 21 May)

Event Time Altitude Azimuth Distance (km) Brightness Sun altitude
Exits shadow 01:29:46 68° 321° (NW) 444 -3.6 -20.6°
Maximum altitude 01:29:57 71° 350° (N) 436 -3.6 -20.6°
Drops below altitude 10° 01:33:15 10° 76° (ENE) 1,477 -0.7 -20.5°
Sets 01:35:21 0° 79° (E) 2,339 0.3 -20.5°
